Location: ?
(35.4554°N, 139.3092°E)
Time: 22:27:48
(UTC+00:00)

Meteor 1-31 Rocket - Pass Details

Date: 21 April 2021
Orbit: 520 x 546 km, 97.7° (Epoch: 10 May)

Event Time Altitude Azimuth Distance (km) Brightness Sun altitude
Rises 19:31:15 0° 14° (NNE) 2,665 6.8 -6.8°
Reaches altitude 10° 19:33:22 10° 16° (NNE) 1,776 6.0 -6.4°
Maximum altitude 19:37:12 73° 101° (E) 557 3.0 -5.6°
Drops below altitude 10° 19:41:01 10° 187° (S) 1,778 5.2 -4.9°
Sets 19:43:08 0° 189° (S) 2,668 6.0 -4.5°
